DW4326 Weather Reports


time (UTC)temp
F
wind
direction
speed
knots
gust
knots
rain 1hr
in
rain 24hr
in
rain mn
in
humidity
%
barometer
mb
20260505115429 46 322 0.0 0.0 0.00 0.00 0.00 92 1006.1
20260505113928 45 322 0.0 0.0 0.00 0.00 0.00 94 1006.2
20260505112425 44 322 0.0 0.0 0.00 0.00 0.00 96 1006.4
20260505110925 43 322 0.0 0.0 0.00 0.00 0.00 95 1006.5
20260505100924 40 322 0.0 0.0 0.00 0.00 0.00 95 1006.0
20260505095423 40 322 0.0 0.0 0.00 0.00 0.00 94 1005.9
20260505093923 40 322 0.0 0.0 0.00 0.00 0.00 94 1006.0
20260505092422 40 322 0.0 0.0 0.00 0.00 0.00 94 1006.1
20260505090922 40 322 0.0 0.0 0.00 0.00 0.00 94 1006.3
20260505085415 40 322 0.0 0.0 0.00 0.00 0.00 94 1006.4
20260505083917 39 322 0.0 0.0 0.00 0.00 0.00 93 1006.6
20260505082409 40 322 0.0 0.0 0.00 0.00 0.00 94 1006.6
20260505080910 40 322 0.0 0.0 0.00 0.00 0.00 93 1006.3
20260505075404 40 322 0.0 0.0 0.00 0.00 0.00 93 1006.3
20260505073904 40 322 0.0 0.0 0.00 0.00 0.00 92 1006.3
20260505072357 40 322 0.0 0.0 0.00 0.00 0.00 92 1006.4
20260505071630 40 322 0.0 0.0 0.00 0.00 0.00 92 1006.5
20260505065356 40 322 0.0 0.0 0.00 0.00 0.00 91 1006.5
20260505063852 41 322 0.0 0.0 0.00 0.00 0.00 91 1006.6
20260505062352 41 322 0.0 0.0 0.00 0.00 0.00 91 1006.5
20260505060851 41 322 0.0 0.0 0.00 0.01 0.00 90 1006.6
20260505055350 41 322 0.0 0.0 0.00 0.01 0.00 89 1006.7
20260505053851 42 322 0.0 0.0 0.00 0.01 0.00 89 1006.7
20260505053124 42 322 0.0 0.0 0.00 0.01 0.00 88 1006.8
20260505050846 43 322 0.0 0.0 0.00 0.01 0.00 87 1006.8
20260505040842 45 322 0.0 0.0 0.00 0.01 0.00 84 1006.6
20260505040112 45 322 0.0 0.0 0.00 0.01 0.01 84 1006.5
20260505033840 46 322 0.0 0.9 0.00 0.01 0.01 83 1006.5
20260505033107 46 322 0.0 0.0 0.00 0.01 0.01 82 1006.3
20260505030837 47 322 0.0 0.0 0.00 0.01 0.01 80 1006.3
20260505025329 48 322 0.0 0.0 0.00 0.01 0.01 80 1006.3
20260505023830 49 322 0.0 0.0 0.00 0.01 0.01 79 1006.2
20260505022328 49 322 0.0 0.0 0.00 0.01 0.01 78 1006.2
20260505020827 50 322 0.0 0.0 0.00 0.01 0.01 76 1006.3
20260505015329 51 322 0.0 0.0 0.00 0.01 0.01 74 1006.2
20260505014600 52 322 0.0 0.0 0.00 0.01 0.01 73 1006.2
20260505012328 53 322 0.0 0.0 0.00 0.01 0.01 70 1005.9
20260505010829 54 322 0.0 0.0 0.00 0.01 0.01 69 1005.9
20260505010058 55 322 0.0 0.0 0.00 0.01 0.01 66 1005.7
20260505003825 57 322 0.0 0.0 0.00 0.01 0.01 63 1005.4
20260505002319 59 322 0.0 0.0 0.00 0.01 0.01 58 1005.2
20260505000821 61 322 0.0 1.7 0.00 0.01 0.01 54 1005.1
20260505000049 64 99 0.0 4.3 0.00 0.01 0.01 46 1004.9
20260504233815 65 190 1.7 7.8 0.00 0.01 0.01 41 1004.7
20260504232317 65 210 0.0 7.0 0.00 0.01 0.01 40 1004.4
20260504230816 66 351 1.7 7.8 0.00 0.01 0.01 36 1004.2
20260504225315 66 219 0.9 7.8 0.00 0.01 0.01 43 1004.2
20260504223815 67 171 0.9 7.0 0.00 0.01 0.01 37 1003.9
20260504223046 67 315 0.9 15.6 0.00 0.01 0.01 35 1004.0
20260504220817 68 190 2.6 6.1 0.00 0.01 0.01 35 1004.0
20260504215314 68 157 2.6 14.8 0.00 0.01 0.01 37 1004.0
20260504213809 68 154 3.5 13.0 0.00 0.01 0.01 36 1004.0
20260504212307 68 319 3.5 11.3 0.00 0.01 0.01 37 1003.8
20260504210801 68 45 3.5 13.9 0.00 0.01 0.01 35 1003.9
20260504205304 68 89 4.3 13.9 0.00 0.01 0.01 37 1003.9
20260504204526 67 197 1.7 15.6 0.00 0.01 0.01 40 1004.3
20260504202256 67 5 4.3 16.5 0.00 0.01 0.01 36 1004.4
20260504200750 68 196 6.1 13.0 0.00 0.01 0.01 38 1004.2
20260504195249 67 148 2.6 8.7 0.00 0.01 0.01 39 1004.3
20260504193744 67 126 4.3 12.2 0.00 0.01 0.01 39 1004.3
20260504192245 68 150 3.5 12.2 0.00 0.01 0.01 38 1004.5
20260504190737 69 297 3.5 13.9 0.00 0.01 0.01 37 1004.7
20260504185238 68 90 2.6 17.4 0.00 0.01 0.01 40 1004.6
20260504183738 67 125 3.5 13.0 0.00 0.01 0.01 44 1005.1
20260504183733 67 325 5.2 17.4 0.00 0.01 0.01 38 1005.3
20260504180726 67 21 4.3 13.9 0.00 0.01 0.01 41 1004.9
20260504175227 66 180 3.5 13.0 0.00 0.01 0.01 44 1004.8
20260504174450 65 279 2.6 11.3 0.00 0.01 0.01 46 1004.9
20260504172219 64 9 2.6 8.7 0.00 0.01 0.01 45 1005.3
20260504170715 62 5 4.3 12.2 0.00 0.01 0.01 47 1005.6
20260504150702 58 274 3.5 12.2 0.00 0.01 0.01 47 1006.0
20260504140657 60 295 4.3 13.0 0.00 0.01 0.01 47 1006.1
20260504130657 51 0 1.7 11.3 0.00 0.01 0.01 69 1006.1